Temperature
15 15 15 16 13 12 13 14 15 16 16 17 17 17 16 16 16 16 15 15 15 15 15 16 15 15 16 16 16 15 16 16 16 16 16 15 15 15 15 15 15 15 15 15 15 15 15 15 14
15 15 15 15 12 12 13 13 15 15 16 17 17 16 15 15 15 15 15 15 15 15 15 15 15 15 15 15 15 15 15 15 15 15 15 15 15 15 15 15 15 15 14 14 14 14 14 14 14
14 15 15 11 11 12 14 14 14 15 17 17 15 15 15 14 15 15 15 15 15 15 15 15 15 15 15 15 15 15 15 15 15 15 15 15 15 15 14 14 14 14 14 14 14 14 14 14 14
14 14 13 11 12 12 13 14 14 14 16 16 15 14 14 14 14 14 14 14 15 15 15 15 15 15 15 15 15 15 15 15 15 15 15 15 15 14 14 14 14 14 14 14 14 14 14 14 14
14 13 11 11 12 12 13 14 14 14 14 15 14 13 13 13 14 14 14 14 14 14 14 14 14 15 15 15 15 15 14 14 14 14 14 14 14 14 14 14 14 14 14 14 14 14 14 14 13
13 11 10 10 12 12 13 14 14 13 13 14 13 12 12 13 13 13 13 14 14 14 14 14 14 14 14 14 14 14 14 14 14 14 14 14 14 14 14 14 14 13 13 13 13 14 13 13 13
12 9 10 11 11 12 13 14 13 12 12 13 13 11 12 12 12 12 13 13 13 13 13 13 14 14 14 14 14 14 14 14 14 14 14 14 14 14 13 13 13 13 13 13 13 13 13 13 13
12 9 10 10 11 12 12 13 13 12 12 13 13 11 11 12 12 12 12 12 13 13 13 13 13 13 13 13 13 13 13 13 13 13 13 13 13 13 13 13 13 13 13 13 13 13 13 13 12
12 9 9 10 11 11 11 11 12 12 12 12 12 12 12 11 11 12 12 12 12 12 12 12 13 13 13 13 13 13 13 13 13 13 13 13 13 13 13 13 13 12 12 12 12 12 12 12 12
10 8 9 10 10 10 11 11 11 11 10 10 11 11 11 11 11 11 12 12 12 12 12 12 12 12 12 12 12 12 13 12 12 12 12 12 12 12 12 12 12 12 12 12 12 12 12 12 12
9 8 9 10 10 11 10 10 10 10 9 10 10 10 11 11 11 11 11 11 11 11 11 11 11 12 12 12 12 12 12 12 12 12 12 12 12 12 12 12 12 12 12 12 12 12 12 12 12
9 9 10 10 10 10 10 10 9 9 10 10 11 10 10 10 10 10 10 10 10 11 11 11 11 11 11 11 11 11 11 11 11 11 11 11 12 12 12 11 11 11 11 11 11 11 11 11 11
8 8 9 9 10 10 9 9 9 9 10 10 10 10 10 10 10 10 10 10 10 10 10 11 11 11 11 11 11 11 11 11 11 11 11 11 11 11 11 11 11 11 11 11 11 11 11 11 11
8 8 8 9 9 9 8 8 8 9 9 9 9 9 9 9 9 10 10 10 10 10 10 10 10 10 10 10 10 11 11 10 10 10 11 11 11 11 11 11 11 11 11 11 11 11 10 10 10
9 8 8 8 8 8 9 8 7 9 9 9 9 9 9 9 9 9 9 9 9 9 9 10 10 10 10 10 10 10 10 10 10 10 10 10 10 10 10 10 10 10 10 10 10 10 10 10 10
8 7 7 8 8 8 8 7 8 9 9 8 8 8 9 8 8 9 9 9 9 9 9 9 9 9 9 9 9 10 10 10 9 9 10 10 10 10 10 10 10 10 10 10 10 10 10 9 9
6 6 7 7 8 7 7 7 8 9 8 8 8 8 8 8 8 8 8 8 8 8 9 9 9 9 9 9 9 9 9 9 9 9 9 9 9 9 9 9 9 9 9 9 9 9 9 9 9
6 6 6 7 7 7 6 6 7 8 8 7 7 7 7 7 7 8 8 8 8 8 8 8 8 8 8 8 8 9 9 9 9 9 9 9 9 9 9 9 9 9 9 9 9 9 9 8 8
6 6 6 7 7 7 6 6 7 7 7 7 7 7 7 7 7 7 7 7 8 8 8 8 8 8 8 8 8 8 8 8 8 8 8 8 8 8 8 8 8 8 8 8 8 8 8 8 7
6 6 5 6 7 7 6 6 6 6 6 7 7 7 7 7 7 7 7 7 7 7 7 7 7 7 7 7 7 7 7 7 7 8 8 8 8 8 8 8 8 8 8 8 8 8 7 7 7
6 5 5 6 6 6 5 5 6 6 7 7 7 7 7 7 6 7 7 7 7 7 7 7 7 7 7 7 7 7 7 7 7 7 7 7 7 7 7 7 7 7 7 7 7 7 7 7 7
5 6 6 5 4 4 5 5 5 5 6 6 6 6 6 6 6 6 6 6 6 6 6 6 6 6 6 6 6 6 6 6 6 6 6 6 6 6 6 7 7 7 7 7 7 7 7 6 6
5 5 5 4 4 3 4 4 5 5 5 5 5 6 6 6 6 6 6 6 6 6 6 6 6 6 6 6 6 6 6 5 6 5 5 6 6 6 6 6 6 6 7 7 6 6 6 6 6
5 4 4 2 2 3 4 4 4 4 5 5 5 5 6 5 5 5 6 6 6 6 6 6 5 5 5 5 5 5 5 5 5 5 5 5 5 5 5 6 6 6 6 6 6 6 6 6 6
4 3 3 3 2 3 4 4 4 5 5 5 5 5 5 5 5 5 5 5 5 5 5 5 5 5 5 5 5 5 5 5 4 4 4 4 5 5 5 5 5 5 5 6 5 5 5 5 5
3 3 3 4 4 3 4 4 4 5 5 5 5 5 5 5 5 5 5 4 4 4 4 4 5 5 4 4 4 4 4 4 4 4 4 4 4 4 4 4 4 5 5 5 5 5 5 5 5
3 3 3 2 2 3 3 3 4 5 4 4 4 4 4 4 4 4 4 4 4 4 4 4 4 4 4 4 4 3 3 3 3 3 3 3 4 4 4 4 4 4 4 4 4 4 4 4 4
4 3 2 2 3 4 4 4 4 4 4 3 3 3 4 4 4 4 4 3 3 3 3 3 3 4 3 3 3 3 3 3 3 3 3 3 3 3 3 4 4 4 4 4 4 4 4 4 3
3 3 2 1 2 3 4 4 4 4 3 3 3 3 3 3 3 3 3 3 3 3 3 3 3 3 3 3 3 2 2 2 2 2 3 3 3 3 3 3 3 3 3 3 3 3 3 3 3
2 2 1 2 2 1 2 3 4 3 3 3 3 3 3 3 3 3 3 3 2 2 2 2 2 2 2 2 2 2 2 2 2 2 2 3 3 3 2 3 3 3 3 3 3 3 3 3 2
Wind_Speed
10 8 2 4 5 3 4 5 3 1 1 1 1 3 4 3 3 4 2 2 4 5 6 8 8 8 8 8 8 8 8 8 8 8 8 9 8 8 8 9 9 9 9 9 8 9 9 8 8
6 3 4 5 4 3 5 5 4 4 3 1 2 2 3 3 2 4 2 2 5 6 6 7 8 8 8 8 8 7 7 7 7 7 7 8 8 8 8 8 8 8 8 8 8 8 8 8 8
4 2 4 4 4 6 5 4 5 3 2 0 2 2 2 2 2 3 2 4 6 5 5 6 8 8 8 8 7 7 6 6 6 7 7 7 7 7 7 7 7 7 7 8 7 7 7 7 7
3 4 4 3 5 5 5 3 2 1 2 2 2 2 2 2 1 2 3 6 7 5 5 6 7 7 7 7 7 6 6 6 6 6 6 6 7 6 6 6 6 6 7 7 7 6 6 6 7
4 4 3 1 4 4 3 3 2 1 1 2 2 2 2 5 3 5 6 6 7 5 5 6 7 7 6 6 6 6 6 5 5 5 6 5 6 6 6 6 5 6 6 6 6 6 5 5 6
4 4 3 4 5 3 2 2 0 1 0 2 2 2 1 2 4 4 5 5 6 6 5 6 6 5 5 5 5 6 5 5 5 5 5 5 4 4 5 6 5 5 5 6 6 5 5 5 4
4 4 4 4 4 3 2 1 1 1 1 1 1 3 1 2 2 3 5 6 6 6 5 6 6 5 3 3 4 5 4 4 4 4 4 4 4 4 4 5 5 5 5 6 6 5 5 5 4
4 4 2 2 3 3 1 1 1 1 1 2 2 4 3 3 1 4 6 6 5 5 5 5 5 6 5 4 3 3 3 4 3 3 3 3 3 3 4 5 5 5 5 6 5 5 5 4 3
3 3 3 3 3 3 1 2 2 2 2 3 2 1 2 2 2 4 5 5 5 5 3 4 4 5 4 3 3 2 2 2 2 2 2 2 2 2 3 4 5 5 5 6 5 5 5 4 3
4 4 4 2 2 1 2 2 1 2 2 2 3 3 3 3 3 4 4 4 3 3 3 3 3 3 3 3 2 2 1 1 2 2 2 2 1 2 2 3 4 5 5 5 5 4 5 4 3
3 5 3 1 0 0 1 3 2 1 2 4 3 2 0 1 3 3 2 2 1 1 2 2 2 2 2 2 2 2 2 2 1 1 2 2 1 1 1 1 3 4 4 4 4 3 3 3 3
2 1 2 1 1 1 1 2 2 2 5 4 4 4 2 1 2 3 2 1 0 1 1 1 2 2 2 2 1 1 2 1 1 1 0 1 1 1 1 1 1 2 2 2 2 2 3 3 4
2 2 1 1 1 1 0 2 3 4 4 2 2 2 2 1 1 1 2 1 1 0 1 1 1 1 2 1 1 1 1 1 1 1 1 1 1 2 1 1 1 2 2 2 2 2 3 3 3
2 1 2 3 3 3 1 3 2 6 4 2 3 3 3 2 2 1 1 1 1 1 1 1 0 1 2 1 0 0 0 1 1 2 2 2 2 2 2 2 2 2 3 3 3 3 2 2 2
1 1 4 4 3 2 1 5 6 7 3 3 3 3 2 2 2 3 2 2 2 2 1 1 1 1 1 1 1 1 1 1 1 2 3 3 3 3 2 3 3 3 3 4 3 3 2 2 1
2 1 2 4 2 2 3 7 7 5 5 5 5 4 3 3 3 3 2 1 1 1 1 1 1 0 1 1 1 1 1 1 1 2 2 3 3 3 3 3 3 3 3 3 3 3 2 2 2
1 2 4 5 2 2 3 7 7 3 5 6 5 4 4 3 3 2 2 1 1 1 2 2 1 1 2 2 1 1 1 1 2 2 2 2 3 3 3 3 3 3 2 3 3 3 2 2 2
5 4 4 6 3 1 4 8 9 5 5 6 6 5 5 5 5 3 2 1 1 1 2 2 2 2 2 1 1 1 1 1 2 2 2 3 3 3 2 3 3 3 3 3 3 3 2 2 2
4 3 6 6 4 2 6 10 10 7 4 5 5 5 6 6 4 3 2 2 1 0 1 2 2 2 1 0 0 1 2 2 2 2 3 3 3 3 2 2 3 3 4 4 4 2 2 2 1
5 5 5 6 2 2 5 9 8 6 6 6 6 6 6 4 3 2 2 1 1 2 2 2 2 2 2 1 1 1 2 2 3 2 3 3 3 3 2 2 3 3 3 4 4 2 2 1 2
4 6 6 5 4 2 2 6 6 5 4 3 4 5 4 5 5 4 3 2 2 3 3 3 3 3 3 2 1 1 1 1 2 2 3 3 3 3 3 3 3 3 3 4 4 5 4 3 3
5 5 4 3 1 3 0 4 7 5 4 3 5 4 4 4 4 4 3 3 4 5 4 4 4 4 3 2 2 2 2 3 3 3 3 3 4 4 3 3 2 3 3 4 4 4 3 5 4
5 2 2 2 2 2 2 3 8 2 5 6 6 5 4 4 4 4 4 4 4 4 4 4 4 4 3 3 3 3 3 3 3 3 3 3 3 3 3 3 2 3 3 3 3 3 3 3 4
2 2 3 3 2 3 5 5 6 4 6 5 4 4 4 3 3 3 3 3 3 3 3 4 4 4 4 3 4 4 4 4 3 3 3 3 2 2 3 3 2 3 3 4 4 3 4 4 4
2 4 3 3 2 6 3 4 8 6 5 5 5 5 3 3 3 2 3 4 4 4 4 4 3 4 4 4 4 4 5 4 5 4 3 3 2 2 3 3 2 2 3 3 3 3 4 4 4
3 5 5 4 4 4 2 6 7 4 3 2 2 3 1 2 3 3 4 4 4 5 4 4 4 4 4 4 5 4 4 3 3 4 3 3 3 3 3 3 2 3 3 3 2 3 3 3 3
3 3 4 3 1 3 5 6 6 2 3 2 2 1 1 3 4 4 4 4 4 5 5 4 4 4 4 5 5 4 4 4 4 4 3 3 3 2 3 3 2 2 2 2 2 2 3 3 3
2 4 3 3 2 4 5 5 5 4 3 2 2 2 3 4 4 4 3 4 5 5 5 4 4 5 5 4 4 4 4 4 4 4 4 3 3 3 3 3 2 2 2 2 2 2 2 2 2
2 2 3 3 3 3 4 6 4 5 4 3 3 3 3 3 3 4 4 4 5 5 4 4 4 4 4 5 5 4 4 4 4 4 4 4 3 3 3 3 2 2 2 2 2 2 2 2 2
3 4 5 3 4 3 3 7 4 2 2 1 3 4 4 3 3 4 5 5 5 5 5 5 5 5 5 5 4 4 4 4 4 4 4 4 3 3 3 3 2 3 2 2 2 2 2 2 2
Wind_Direction
333 339 47 58 63 67 229 244 234 256 284 293 43 102 118 125 137 159 175 120 114 135 142 139 133 126 120 116 117 115 110 109 110 111 112 111 110 113 117 119 119 117 113 111 112 110 107 107 105
341 356 58 66 113 185 248 244 233 231 208 169 26 70 73 72 74 112 125 112 115 125 136 142 134 128 122 117 114 118 116 113 115 113 110 112 111 113 117 120 121 121 120 116 114 115 115 114 113
340 47 87 94 152 193 220 233 222 245 279 49 35 30 86 112 116 139 171 131 105 106 125 141 134 131 125 120 115 115 123 120 117 118 116 114 111 115 119 118 119 120 121 121 118 116 122 123 122
54 52 62 103 206 225 213 224 221 269 338 20 104 37 36 20 135 157 126 112 104 94 106 127 130 129 127 123 119 116 117 123 115 112 119 119 118 118 119 118 120 121 120 120 122 125 124 131 131
64 85 97 193 231 246 238 253 260 273 313 10 76 93 32 352 40 84 94 103 109 101 93 112 126 126 123 124 126 125 120 122 126 116 112 120 122 120 124 126 127 128 127 127 128 128 130 133 138
67 83 128 206 227 243 260 275 270 357 4 14 66 105 116 341 56 64 73 84 98 107 89 87 98 115 119 124 134 133 128 129 128 129 120 122 124 124 137 140 138 139 139 136 133 134 134 135 133
115 123 177 199 212 232 260 322 130 139 47 329 95 116 154 332 29 68 73 78 80 87 83 74 73 77 92 121 134 138 133 130 127 130 137 137 139 140 148 149 149 151 148 145 144 140 132 133 128
127 124 177 210 208 226 290 42 38 80 209 330 90 141 190 253 356 72 70 68 76 77 79 71 69 68 63 62 98 126 132 132 124 121 139 140 142 150 160 161 163 161 158 151 153 149 144 143 143
94 101 194 213 204 224 342 56 356 2 60 7 21 143 180 139 70 70 65 60 65 60 59 61 56 56 60 66 61 85 125 127 123 121 116 141 149 155 166 177 174 172 169 166 166 166 160 155 163
104 161 212 213 194 195 351 11 332 24 18 358 5 13 39 84 87 88 87 79 73 60 43 47 53 50 53 54 52 48 80 137 130 109 114 115 125 156 161 185 179 178 179 181 181 182 176 173 184
147 179 202 258 258 94 347 328 335 143 256 230 219 224 28 94 111 111 109 112 130 126 52 35 42 49 58 45 44 27 24 20 61 109 124 120 108 122 120 181 197 190 185 191 196 192 196 203 209
138 207 202 251 334 357 272 287 323 262 245 228 199 180 162 130 174 162 159 157 123 41 35 28 20 26 30 41 40 36 21 13 355 316 153 137 132 151 173 190 223 200 194 198 201 206 221 231 230
180 229 251 263 326 305 2 276 271 274 261 241 184 167 170 165 266 199 178 166 143 22 329 334 354 13 11 24 25 41 23 349 322 317 285 240 209 196 210 218 217 220 205 198 197 205 222 232 234
165 186 269 283 279 277 228 288 271 257 233 210 194 195 192 179 234 218 183 190 205 231 257 281 313 19 23 10 353 13 347 321 310 297 290 261 237 215 205 201 209 226 220 213 208 207 218 234 234
103 11 322 280 249 236 193 303 248 242 209 204 220 216 203 211 240 208 210 207 213 220 227 257 247 43 30 340 286 323 306 296 289 297 285 276 258 234 218 202 206 223 225 215 211 215 210 228 253
33 21 276 274 215 210 160 259 262 239 196 215 227 227 220 241 248 219 208 208 208 199 223 259 310 350 262 273 287 309 298 280 276 293 293 284 273 249 223 213 223 230 216 206 198 200 215 237 246
18 238 245 271 229 192 194 252 269 245 208 225 227 221 221 243 261 233 204 186 188 202 219 241 241 223 244 260 289 300 298 289 293 295 288 285 282 260 233 221 237 229 210 204 209 210 207 229 244
215 230 249 253 257 201 243 259 273 268 234 236 235 226 225 228 241 219 206 201 200 223 243 241 235 235 244 262 301 309 304 299 311 296 293 288 285 276 256 237 225 217 203 213 215 213 215 218 225
205 223 257 265 273 252 247 263 271 266 252 247 237 222 219 229 241 197 191 191 184 275 292 267 253 257 237 248 273 284 282 277 280 284 291 287 282 278 266 259 229 215 208 214 216 215 206 221 197
220 237 266 283 281 255 267 274 270 253 239 231 221 218 215 222 244 220 219 221 232 248 276 284 267 262 252 240 227 230 245 252 251 271 290 284 282 280 277 250 234 224 216 212 210 196 206 243 200
237 222 236 258 314 304 289 290 266 267 248 238 222 213 209 210 222 226 233 236 241 253 255 269 263 263 258 245 225 265 289 300 299 288 270 281 284 279 268 256 246 233 218 216 215 203 203 221 241
250 242 236 251 293 281 236 280 278 264 274 260 241 223 215 224 226 223 231 242 242 245 251 251 254 257 259 246 224 223 241 260 266 261 263 275 276 269 270 261 252 236 233 227 221 212 227 205 222
219 246 246 245 209 291 251 226 284 281 268 266 248 235 224 225 216 217 234 242 249 247 251 251 249 254 258 254 238 230 248 253 263 264 261 263 266 269 278 271 249 236 236 233 227 227 227 218 222
179 41 30 33 70 270 230 192 276 240 239 259 255 245 227 229 229 235 254 269 272 265 263 258 250 257 255 252 247 235 237 244 256 274 269 273 284 280 281 288 261 243 235 233 226 223 225 227 227
93 97 21 349 336 252 227 200 251 252 246 231 231 224 222 231 238 259 280 287 288 285 277 263 250 263 259 248 249 247 242 237 237 247 253 261 270 279 275 274 268 262 257 244 228 223 231 226 223
187 155 172 210 235 277 268 234 256 274 278 255 188 174 190 261 272 271 272 276 281 283 277 258 249 255 256 248 250 250 243 241 245 239 236 241 245 253 253 261 265 274 271 261 234 223 233 228 229
153 191 186 154 204 273 267 275 294 295 357 17 32 32 302 289 291 292 298 294 288 286 276 255 252 257 257 253 254 254 245 239 247 248 237 238 246 254 249 251 247 256 261 255 241 234 236 234 237
168 154 121 153 183 265 284 271 257 264 275 291 297 293 292 298 304 307 308 306 300 288 280 269 254 250 252 255 256 259 252 241 237 242 244 248 248 243 254 254 240 248 256 252 248 246 238 232 243
166 161 161 155 172 186 266 270 242 230 229 234 257 273 282 291 299 308 315 313 311 307 295 284 273 269 266 260 254 250 251 247 241 241 241 241 240 244 249 241 235 247 258 254 247 251 239 227 250
205 189 163 173 227 198 219 270 297 265 284 268 282 293 299 298 296 299 306 314 321 318 305 291 283 280 272 258 253 247 248 244 243 245 244 239 242 247 238 237 237 250 256 249 242 241 241 223 234
Height
1503 1504 1506 1508 1512 1521 1522 1514 1507 1505 1504 1503 1503 1502 1503 1506 1509 1515 1512 1510 1511 1512 1513 1514 1515 1516 1516 1517 1517 1518 1518 1519 1519 1520 1520 1521 1521 1522 1522 1522 1523 1523 1523 1523 1523 1524 1523 1523 1523
1503 1504 1507 1508 1516 1525 1520 1511 1506 1503 1502 1502 1502 1503 1503 1506 1507 1509 1509 1510 1511 1512 1513 1514 1514 1515 1516 1516 1516 1517 1518 1518 1519 1519 1520 1520 1521 1521 1522 1522 1522 1522 1523 1523 1523 1523 1523 1523 1523
1502 1504 1507 1510 1517 1519 1513 1506 1504 1502 1501 1502 1503 1503 1504 1506 1507 1508 1509 1509 1510 1511 1512 1513 1514 1515 1515 1515 1515 1516 1517 1517 1518 1518 1519 1519 1520 1520 1521 1521 1522 1522 1522 1522 1522 1522 1522 1522 1523
1502 1505 1507 1513 1514 1510 1506 1503 1502 1502 1502 1501 1502 1505 1506 1508 1508 1508 1508 1509 1510 1511 1512 1513 1514 1514 1514 1514 1515 1515 1516 1517 1517 1517 1518 1519 1519 1520 1520 1521 1521 1521 1521 1522 1522 1522 1522 1522 1522
1502 1504 1511 1515 1511 1506 1503 1502 1501 1502 1502 1502 1503 1505 1507 1508 1508 1508 1508 1509 1509 1510 1511 1512 1512 1513 1513 1513 1514 1514 1515 1515 1516 1517 1517 1518 1518 1519 1519 1520 1520 1520 1521 1521 1521 1521 1521 1521 1521
1502 1504 1515 1516 1510 1505 1502 1501 1501 1501 1502 1503 1503 1505 1507 1508 1507 1507 1508 1508 1509 1510 1510 1511 1511 1512 1512 1512 1513 1513 1513 1514 1514 1515 1516 1517 1517 1517 1518 1518 1519 1519 1520 1520 1520 1520 1520 1520 1521
1503 1507 1512 1510 1508 1506 1503 1501 1501 1502 1502 1503 1503 1505 1506 1507 1507 1507 1507 1508 1508 1509 1509 1509 1510 1510 1511 1511 1511 1512 1512 1513 1513 1513 1514 1515 1515 1516 1516 1517 1517 1518 1518 1519 1519 1519 1519 1519 1520
1501 1506 1508 1509 1506 1505 1502 1501 1502 1502 1502 1503 1503 1504 1505 1506 1506 1506 1506 1507 1507 1508 1508 1508 1508 1509 1509 1509 1510 1510 1510 1511 1511 1512 1512 1513 1513 1514 1514 1515 1516 1516 1517 1517 1517 1518 1518 1518 1518
1501 1509 1510 1507 1505 1503 1501 1501 1502 1502 1502 1502 1502 1503 1504 1504 1504 1505 1505 1505 1506 1506 1507 1507 1507 1507 1507 1507 1508 1508 1509 1509 1509 1510 1510 1511 1511 1512 1512 1513 1514 1514 1515 1515 1516 1516 1516 1516 1517
1501 1508 1506 1503 1502 1501 1501 1501 1502 1502 1501 1502 1501 1502 1503 1503 1502 1502 1502 1503 1503 1504 1504 1505 1505 1505 1505 1506 1506 1506 1507 1507 1507 1507 1508 1508 1509 1510 1510 1511 1511 1512 1512 1513 1514 1514 1514 1514 1514
1500 1504 1502 1501 1501 1501 1501 1501 1501 1501 1501 1500 1500 1500 1501 1501 1500 1501 1501 1501 1502 1502 1503 1502 1503 1503 1503 1504 1504 1504 1504 1505 1505 1505 1505 1506 1507 1507 1508 1508 1509 1510 1510 1511 1511 1512 1512 1512 1512
1500 1500 1500 1501 1500 1500 1500 1500 1500 1499 1499 1499 1499 1499 1498 1498 1498 1498 1498 1499 1500 1500 1500 1500 1501 1501 1501 1501 1502 1502 1502 1502 1502 1503 1503 1504 1504 1504 1505 1506 1506 1507 1507 1508 1509 1509 1509 1509 1510
1500 1500 1500 1500 1499 1499 1499 1499 1499 1498 1497 1497 1497 1497 1497 1496 1497 1496 1497 1497 1497 1498 1498 1499 1499 1499 1499 1499 1499 1499 1499 1499 1500 1500 1501 1501 1501 1501 1502 1503 1504 1504 1505 1505 1505 1506 1506 1506 1507
1499 1499 1499 1499 1498 1498 1498 1498 1498 1495 1496 1495 1495 1494 1494 1494 1494 1494 1494 1495 1495 1495 1496 1497 1497 1497 1497 1497 1496 1496 1496 1497 1497 1497 1498 1498 1498 1498 1499 1499 1500 1501 1502 1502 1502 1503 1503 1503 1503
1498 1500 1499 1497 1497 1497 1497 1497 1495 1492 1494 1493 1493 1493 1493 1492 1492 1492 1492 1492 1492 1493 1493 1494 1494 1494 1494 1494 1494 1494 1493 1494 1494 1494 1495 1495 1495 1495 1495 1496 1497 1497 1498 1499 1499 1500 1500 1500 1500
1500 1502 1502 1497 1496 1496 1499 1497 1491 1490 1491 1491 1490 1490 1490 1490 1490 1490 1490 1490 1490 1490 1491 1491 1492 1492 1492 1491 1491 1491 1491 1491 1491 1491 1491 1491 1492 1492 1492 1492 1493 1494 1494 1495 1495 1495 1496 1496 1496
1503 1505 1502 1497 1494 1495 1496 1495 1489 1489 1489 1488 1488 1488 1488 1487 1488 1488 1487 1488 1488 1488 1488 1488 1489 1489 1489 1489 1488 1488 1488 1488 1487 1488 1488 1488 1488 1489 1489 1489 1489 1490 1490 1491 1491 1491 1492 1491 1492
1504 1504 1500 1498 1494 1494 1495 1492 1487 1486 1486 1484 1484 1485 1485 1485 1485 1485 1485 1486 1486 1486 1486 1485 1486 1485 1486 1485 1485 1485 1484 1484 1484 1484 1484 1484 1484 1485 1485 1485 1485 1486 1486 1486 1487 1487 1487 1488 1488
1498 1500 1500 1495 1492 1494 1493 1490 1485 1484 1483 1482 1481 1482 1482 1483 1483 1483 1483 1483 1483 1483 1483 1483 1482 1482 1482 1481 1481 1480 1480 1480 1480 1480 1480 1480 1480 1481 1481 1481 1481 1481 1481 1482 1482 1483 1483 1484 1484
1498 1500 1499 1495 1492 1493 1492 1489 1483 1481 1480 1479 1479 1478 1479 1480 1480 1480 1480 1480 1480 1480 1480 1479 1479 1479 1478 1478 1477 1477 1477 1476 1476 1476 1476 1476 1476 1476 1476 1476 1476 1476 1476 1477 1477 1478 1478 1479 1480
1497 1499 1498 1496 1493 1492 1493 1489 1483 1478 1477 1476 1476 1475 1476 1476 1476 1476 1477 1477 1477 1476 1476 1476 1476 1475 1475 1475 1474 1473 1473 1472 1471 1471 1471 1472 1472 1472 1472 1472 1472 1472 1472 1472 1473 1474 1474 1474 1476
1497 1494 1494 1495 1498 1499 1496 1496 1482 1478 1476 1474 1473 1473 1473 1473 1473 1474 1474 1474 1473 1473 1473 1472 1472 1471 1471 1471 1470 1469 1468 1467 1466 1467 1467 1467 1468 1468 1467 1467 1467 1467 1467 1467 1468 1469 1470 1470 1470
1495 1493 1494 1496 1499 1501 1497 1499 1484 1478 1475 1471 1470 1470 1471 1471 1471 1471 1471 1471 1470 1470 1469 1468 1468 1467 1467 1466 1466 1465 1464 1463 1463 1463 1462 1462 1463 1463 1463 1462 1462 1463 1463 1463 1464 1464 1465 1465 1465
1493 1495 1497 1501 1503 1503 1495 1497 1486 1478 1473 1470 1468 1468 1468 1468 1468 1468 1468 1468 1467 1466 1465 1464 1463 1463 1462 1462 1461 1461 1460 1459 1458 1458 1457 1457 1457 1458 1458 1458 1458 1458 1459 1459 1459 1459 1460 1460 1460
1494 1501 1507 1505 1509 1500 1490 1491 1481 1470 1468 1467 1466 1466 1466 1467 1466 1466 1465 1464 1463 1462 1461 1460 1459 1458 1458 1458 1457 1456 1455 1455 1454 1453 1453 1452 1453 1453 1453 1454 1454 1454 1454 1454 1454 1454 1455 1455 1455
1495 1498 1504 1503 1503 1497 1491 1489 1476 1468 1465 1464 1464 1464 1465 1465 1464 1463 1462 1461 1460 1458 1457 1456 1455 1454 1453 1453 1452 1452 1451 1450 1450 1449 1449 1449 1449 1449 1450 1449 1449 1449 1449 1449 1449 1450 1450 1451 1451
1494 1498 1497 1504 1505 1503 1493 1484 1473 1466 1465 1464 1463 1463 1463 1463 1462 1461 1460 1458 1457 1455 1453 1452 1451 1449 1449 1448 1447 1447 1446 1446 1446 1445 1445 1445 1445 1446 1446 1446 1445 1445 1445 1445 1446 1445 1446 1446 1446
1491 1493 1500 1502 1500 1495 1488 1484 1477 1468 1466 1464 1464 1463 1462 1461 1460 1459 1457 1455 1453 1452 1450 1448 1447 1445 1444 1443 1443 1442 1442 1442 1441 1441 1441 1441 1441 1442 1442 1442 1442 1441 1441 1442 1441 1441 1441 1442 1442
1493 1495 1496 1500 1500 1499 1493 1481 1467 1466 1464 1464 1463 1462 1461 1460 1459 1457 1455 1453 1451 1449 1446 1444 1443 1441 1440 1439 1438 1437 1437 1438 1438 1437 1437 1437 1438 1438 1438 1438 1437 1437 1437 1438 1438 1438 1437 1438 1438
1492 1492 1495 1496 1498 1500 1499 1483 1465 1464 1462 1462 1462 1461 1460 1459 1457 1455 1453 1450 1448 1445 1443 1441 1439 1437 1436 1434 1434 1433 1433 1433 1433 1433 1433 1433 1433 1433 1434 1434 1434 1434 1434 1434 1434 1434 1434 1434 1434